contact:dominique.lefevre@mio.osupytheas.fr, maurice.libes@osupytheas.fr
Project:EMSO Ligure-ouest http://www.emso-fr.org/EMSO-France
Sensor Aquadopp, line 13 Serial AQD14315 
DOI : "https://doi.org/10.17882/74513; https://doi.org/10.17882/83244" 
Title:EMSO Ligure Ouest : Data ligne ALBATROSS capteur AQUADOPP - deploiement 2021
Id,Date,Profondeur,Latitude,Longitude,X_East,Y_North,Z_Up,Amplitude_X,Amplitude_Y,Amplitude_Z,Batterie,SoundSpeed,Heading,Pitch,Roll,Pressure,Temperature,Speed,Direction
, , m, degrees North, degrees East, m.s-1, m.s-1,m.s-1, 1, 1, 1, Volt, m.s-1, degree, degree, degree, dbar, degree_C, m.s-1, degree
13,2021-12-25T22:00:00,2400.0,42.79,6.0312,-0.03,0.004,0.0,59.0,52.0,56.0,12.5,1504.8,297.3,-0.2,-0.3,2394.66,13.33,0.03,277.6
13,2021-12-25T22:30:00,2400.0,42.79,6.0312,-0.018,0.001,-0.003,61.0,54.0,55.0,12.5,1504.8,292.9,-0.1,-0.3,2394.688,13.33,0.018,273.2
13,2021-12-25T23:00:00,2400.0,42.79,6.0312,-0.037,0.002,0.009,62.0,56.0,58.0,12.5,1504.8,293.0,-0.1,-0.4,2394.712,13.33,0.037,273.1
13,2021-12-25T23:30:00,2400.0,42.79,6.0312,-0.028,-0.015,-0.039,61.0,59.0,57.0,12.5,1504.8,291.9,-0.2,-0.4,2394.764,13.33,0.031,241.8
13,2021-12-26T00:00:00,2400.0,42.79,6.0312,-0.044,0.004,-0.013,64.0,56.0,58.0,12.5,1504.8,294.8,-0.3,-0.3,2394.753,13.33,0.044,275.2
13,2021-12-26T00:30:00,2400.0,42.79,6.0312,-0.038,0.011,0.003,64.0,57.0,58.0,12.5,1504.8,293.5,-0.2,-0.3,2394.739,13.33,0.039,286.1
13,2021-12-26T01:00:00,2400.0,42.79,6.0312,-0.024,0.024,-0.03,64.0,57.0,60.0,12.5,1504.8,297.0,-0.3,-0.4,2394.711,13.33,0.033,315.0
13,2021-12-26T01:30:00,2400.0,42.79,6.0312,-0.049,0.027,0.006,61.0,55.0,56.0,12.5,1504.8,296.4,-0.3,-0.4,2394.65,13.33,0.055,298.9
13,2021-12-26T02:00:00,2400.0,42.79,6.0312,-0.051,0.04,0.005,64.0,58.0,58.0,12.5,1504.8,298.0,-0.4,-0.4,2394.634,13.33,0.064,308.1
13,2021-12-26T02:30:00,2400.0,42.79,6.0312,-0.011,0.043,0.002,62.0,55.0,58.0,12.5,1504.8,299.8,-0.1,-0.4,2394.64,13.33,0.044,345.7
13,2021-12-26T03:00:00,2400.0,42.79,6.0312,-0.036,0.049,0.0,63.0,56.0,58.0,12.5,1504.8,301.7,-0.4,-0.3,2394.711,13.33,0.06,323.7
13,2021-12-26T03:30:00,2400.0,42.79,6.0312,-0.008,0.049,-0.025,62.0,56.0,58.0,12.5,1504.8,299.6,-0.1,-0.5,2394.666,13.33,0.049,350.7
13,2021-12-26T04:00:00,2400.0,42.79,6.0312,-0.018,0.044,0.002,65.0,58.0,58.0,12.5,1504.8,297.3,-0.2,-0.3,2394.602,13.33,0.047,337.8
13,2021-12-26T04:30:00,2400.0,42.79,6.0312,-0.013,0.053,-0.015,62.0,55.0,59.0,12.5,1504.8,300.9,-0.4,-0.4,2394.617,13.33,0.054,346.2
13,2021-12-26T05:00:00,2400.0,42.79,6.0312,-0.004,0.064,0.01,60.0,56.0,58.0,12.5,1504.8,303.4,-0.2,-0.3,2394.649,13.33,0.064,356.4
13,2021-12-26T05:30:00,2400.0,42.79,6.0312,-0.017,0.044,-0.008,62.0,56.0,55.0,12.4,1504.8,303.0,-0.4,-0.3,2394.702,13.33,0.047,338.9
13,2021-12-26T06:00:00,2400.0,42.79,6.0312,-0.008,0.036,-0.01,64.0,57.0,58.0,12.5,1504.8,302.6,-0.4,-0.3,2394.653,13.33,0.036,347.5
13,2021-12-26T06:30:00,2400.0,42.79,6.0312,0.018,0.025,0.019,62.0,59.0,58.0,12.4,1504.8,303.9,-0.2,-0.3,2394.686,13.33,0.03,35.8
13,2021-12-26T07:00:00,2400.0,42.79,6.0312,0.029,0.015,-0.002,63.0,56.0,58.0,12.5,1504.8,305.2,0.0,-0.2,2394.664,13.33,0.032,62.6
13,2021-12-26T07:30:00,2400.0,42.79,6.0312,0.007,0.018,-0.012,65.0,57.0,58.0,12.5,1504.8,305.8,-0.3,-0.2,2394.707,13.33,0.019,21.2
13,2021-12-26T08:00:00,2400.0,42.79,6.0312,0.019,0.022,0.024,63.0,56.0,59.0,12.5,1504.8,304.2,-0.2,-0.3,2394.704,13.33,0.029,40.8
13,2021-12-26T08:30:00,2400.0,42.79,6.0312,0.027,0.008,0.0,67.0,59.0,60.0,12.5,1504.8,304.4,-0.3,-0.3,2394.715,13.33,0.028,73.5
13,2021-12-26T09:00:00,2400.0,42.79,6.0312,0.01,0.029,0.006,63.0,53.0,58.0,12.5,1504.8,303.1,-0.1,-0.4,2394.718,13.33,0.03,19.0
13,2021-12-26T09:30:00,2400.0,42.79,6.0312,0.025,0.026,-0.003,60.0,58.0,59.0,12.5,1504.8,298.9,-0.2,-0.3,2394.786,13.33,0.036,43.9
13,2021-12-26T10:00:00,2400.0,42.79,6.0312,0.038,-0.018,0.015,63.0,55.0,56.0,12.5,1504.8,295.6,-0.2,-0.4,2394.769,13.33,0.042,115.3
13,2021-12-26T10:30:00,2400.0,42.79,6.0312,0.02,0.006,0.019,66.0,56.0,57.0,12.5,1504.8,291.1,-0.2,-0.3,2394.879,13.33,0.02,73.3
13,2021-12-26T11:00:00,2400.0,42.79,6.0312,0.016,-0.011,-0.02,64.0,57.0,57.0,12.4,1504.8,291.6,-0.2,-0.4,2394.781,13.33,0.019,124.5
13,2021-12-26T11:30:00,2400.0,42.79,6.0312,0.02,-0.03,-0.029,63.0,55.0,56.0,12.5,1504.8,290.8,-0.3,-0.3,2394.833,13.33,0.036,146.3
13,2021-12-26T12:00:00,2400.0,42.79,6.0312,-0.009,-0.001,0.017,64.0,57.0,59.0,12.5,1504.8,292.2,-0.2,-0.3,2394.837,13.33,0.009,263.7
13,2021-12-26T12:30:00,2400.0,42.79,6.0312,-0.005,-0.017,-0.002,64.0,60.0,55.0,12.5,1504.8,292.7,-0.1,-0.2,2394.833,13.33,0.017,196.4
13,2021-12-26T13:00:00,2400.0,42.79,6.0312,0.004,-0.017,-0.005,63.0,61.0,57.0,12.5,1504.8,294.8,-0.1,-0.3,2394.868,13.33,0.017,166.8
13,2021-12-26T13:30:00,2400.0,42.79,6.0312,-0.003,-0.012,-0.012,61.0,57.0,60.0,12.5,1504.8,298.2,-0.3,-0.3,2394.829,13.33,0.012,194.0
13,2021-12-26T14:00:00,2400.0,42.79,6.0312,-0.022,-0.015,0.012,62.0,55.0,57.0,12.5,1504.8,299.5,-0.3,-0.3,2394.817,13.33,0.026,235.7
13,2021-12-26T14:30:00,2400.0,42.79,6.0312,-0.016,-0.024,-0.021,63.0,57.0,59.0,12.5,1504.8,300.5,-0.2,-0.2,2394.795,13.33,0.028,213.7
13,2021-12-26T15:00:00,2400.0,42.79,6.0312,-0.026,-0.004,-0.016,62.0,56.0,58.0,12.5,1504.8,298.9,-0.3,-0.3,2394.821,13.33,0.026,261.3
13,2021-12-26T15:30:00,2400.0,42.79,6.0312,-0.021,-0.019,0.014,62.0,60.0,60.0,12.5,1504.8,296.6,-0.2,-0.4,2394.779,13.33,0.028,227.9
13,2021-12-26T16:00:00,2400.0,42.79,6.0312,-0.015,-0.011,-0.023,66.0,55.0,59.0,12.5,1504.8,296.2,-0.2,-0.4,2394.772,13.33,0.018,233.7
13,2021-12-26T16:30:00,2400.0,42.79,6.0312,-0.025,0.014,-0.009,60.0,53.0,58.0,12.5,1504.8,292.1,-0.2,-0.3,2394.69,13.33,0.028,299.3
13,2021-12-26T17:00:00,2400.0,42.79,6.0312,-0.037,0.02,-0.014,61.0,55.0,58.0,12.5,1504.8,293.5,-0.1,-0.3,2394.772,13.33,0.042,298.4
13,2021-12-26T17:30:00,2400.0,42.79,6.0312,-0.052,0.011,0.008,63.0,54.0,58.0,12.5,1504.8,293.9,-0.2,-0.2,2394.742,13.33,0.053,281.9
13,2021-12-26T18:00:00,2400.0,42.79,6.0312,-0.043,-0.002,-0.032,61.0,55.0,56.0,12.5,1504.8,295.6,-0.1,-0.4,2394.707,13.33,0.043,267.3
13,2021-12-26T18:30:00,2400.0,42.79,6.0312,-0.035,0.019,-0.005,64.0,57.0,60.0,12.5,1504.8,294.6,-0.1,-0.3,2394.665,13.33,0.039,298.5
13,2021-12-26T19:00:00,2400.0,42.79,6.0312,-0.04,0.025,-0.02,61.0,58.0,60.0,12.5,1504.8,300.1,-0.1,-0.4,2394.668,13.33,0.047,302.0
13,2021-12-26T19:30:00,2400.0,42.79,6.0312,-0.025,0.026,0.003,62.0,56.0,57.0,12.5,1504.8,299.2,-0.2,-0.4,2394.712,13.33,0.036,316.1
13,2021-12-26T20:00:00,2400.0,42.79,6.0312,-0.029,0.038,-0.028,65.0,55.0,61.0,12.5,1504.8,299.5,-0.2,-0.4,2394.748,13.33,0.047,322.7
13,2021-12-26T20:30:00,2400.0,42.79,6.0312,0.013,0.01,0.002,62.0,58.0,61.0,12.5,1504.8,303.3,-0.2,-0.3,2394.693,13.33,0.016,52.4
13,2021-12-26T21:00:00,2400.0,42.79,6.0312,-0.004,0.029,0.031,64.0,57.0,59.0,12.5,1504.8,293.8,-0.2,-0.4,2394.671,13.33,0.029,352.2
13,2021-12-26T21:30:00,2400.0,42.79,6.0312,0.005,0.021,-0.015,62.0,59.0,59.0,12.4,1504.8,290.5,-0.1,-0.4,2394.676,13.33,0.021,13.4
